Morrisville, NC

7:58 PM EST on January 21, 2017 (GMT -0500)
Raleigh-Durham International Airport

Weather History for KRDU - March, 2014

Change the Weather History Date:

Monday, March 17, 2014

  Actual Average Record
Temperature  
Mean Temperature 34 °F 52 °F  
Max Temperature 36 °F 64 °F 92 °F (1945)
Min Temperature 31 °F 40 °F 18 °F (1981)
Degree Days  
Heating Degree Days 31 14  
Month to date heating degree days 343 266  
Since 1 July heating degree days 3044 2838  
Cooling Degree Days 0 0  
Month to date cooling degree days 0 0  
Year to date cooling degree days 0 1  
Moisture  
Dew Point 30 °F    
Average Humidity 87    
Maximum Humidity 92    
Minimum Humidity 82    
Precipitation  
Precipitation 0.46 in 0.14 in 1.33 in (1965)
Month to date precipitation 3.73 2.30  
Year to date precipitation 8.69 9.03  
Snow  
Snow T in 0.00 in 0.50 in (1915)
Month to date snowfall 0.2 0.4  
Since 1 July snowfall 5.8 5.9  
Snow Depth 0.00 in    
Sea Level Pressure  
Sea Level Pressure 29.91 in    
Wind  
Wind Speed 10 mph (NE)    
Max Wind Speed 20 mph    
Max Gust Speed 25 mph    
Visibility 4 miles    
Events Rain , Snow    
T = Trace of Precipitation, MM = Missing Value Source: NWS Daily Summary

Daily Weather History Graph

Daily Weather History Graph

Search for Another Location

Airport or City:

Trip Planner

Search our weather history database for the weather conditions in past years. The results will help you decide how hot, cold, wet, or windy it might be!

Date:

Astronomy

Mar. 17, 2014 Rise Set
Actual Time 7:23 AM EDT 7:24 PM EDT
Civil Twilight 6:57 AM EDT 7:49 PM EDT
Nautical Twilight 6:27 AM EDT 8:19 PM EDT
Astronomical Twilight 5:57 AM EDT 8:49 PM EDT
Moon 8:36 PM EDT (3/17) 7:40 AM EDT (3/17)
Length of Visible Light 12h 52m
Length of Day
12h 01m
Full, 99% of the Moon is Illuminated
Mar 17
Full
Mar 23
Last Quarter
Mar 30
New
Apr 7
First Quarter
Apr 15
Full

Hourly Weather History & Observations

Time (EDT) Temp. Windchill Dew Point Humidity Pressure Visibility Wind Dir Wind Speed Gust Speed Precip Events Conditions
12:24 AM 37.4 °F 29.8 °F 33.8 °F 87% 29.88 in 2.0 mi NE 11.5 mph 19.6 mph 0.02 in Rain Light Rain
12:51 AM 36.0 °F 29.0 °F 33.1 °F 89% 29.87 in 2.0 mi NE 9.2 mph - 0.05 in Rain Light Rain
1:07 AM 35.6 °F 27.5 °F 33.8 °F 93% 29.86 in 3.0 mi NNE 11.5 mph 19.6 mph 0.01 in Rain Light Rain
1:51 AM 36.0 °F 27.5 °F 32.0 °F 86% 29.87 in 3.0 mi NE 12.7 mph 20.7 mph 0.01 in Rain Light Rain
2:05 AM 35.6 °F 27.5 °F 33.8 °F 93% 29.86 in 2.0 mi NE 11.5 mph 18.4 mph 0.01 in Rain Light Rain
2:21 AM 35.6 °F 26.6 °F 32.0 °F 87% 29.86 in 3.0 mi NE 13.8 mph 24.2 mph 0.01 in   Light Drizzle
2:51 AM 35.1 °F 26.4 °F 32.0 °F 89% 29.86 in 10.0 mi NE 12.7 mph 23.0 mph 0.01 in Rain Light Rain
3:51 AM 34.0 °F 25.5 °F 30.9 °F 89% 29.86 in 4.0 mi NE 11.5 mph - 0.01 in   Light Drizzle
4:51 AM 34.0 °F 25.0 °F 30.0 °F 85% 29.85 in 5.0 mi NE 12.7 mph 17.3 mph 0.01 in Rain Light Rain
5:51 AM 33.1 °F 26.9 °F 30.9 °F 92% 29.85 in 6.0 mi NE 6.9 mph - 0.00 in   Light Drizzle
6:51 AM 33.1 °F 24.4 °F 30.0 °F 89% 29.86 in 10.0 mi NNE 11.5 mph - 0.00 in   Overcast
7:51 AM 33.1 °F 23.9 °F 28.9 °F 85% 29.89 in 3.0 mi NE 12.7 mph - 0.00 in   Light Drizzle
8:51 AM 33.1 °F 25.5 °F 30.0 °F 89% 29.90 in 4.0 mi NE 9.2 mph - 0.00 in   Light Drizzle
9:51 AM 33.1 °F 23.9 °F 28.9 °F 85% 29.89 in 8.0 mi ENE 12.7 mph 20.7 mph 0.00 in   Overcast
10:51 AM 33.1 °F 26.1 °F 28.9 °F 85% 29.92 in 4.0 mi NE 8.1 mph - 0.00 in   Light Drizzle
11:51 AM 33.1 °F 23.9 °F 28.9 °F 85% 29.93 in 3.0 mi NE 12.7 mph - 0.00 in   Light Drizzle
12:03 PM 33.8 °F 26.4 °F 30.2 °F 87% 29.92 in 1.5 mi NE 9.2 mph - 0.00 in Snow Light Snow
12:51 PM 32.0 °F 25.6 °F 28.9 °F 88% 29.96 in 1.5 mi NNE 6.9 mph - 0.00 in Snow Light Snow
1:07 PM 33.8 °F 26.4 °F 28.4 °F 81% 29.95 in 1.5 mi NE 9.2 mph - 0.00 in Snow Light Ice Pellets
1:51 PM 33.1 °F 24.9 °F 30.0 °F 89% 29.91 in 4.0 mi NE 10.4 mph - 0.01 in Rain Light Ice Pellets
2:20 PM 33.8 °F 25.3 °F 30.2 °F 87% 29.91 in 7.0 mi NE 11.5 mph - 0.00 in Snow Light Snow
2:51 PM 33.1 °F 23.9 °F 28.9 °F 85% 29.93 in 10.0 mi NE 12.7 mph 16.1 mph 0.00 in   Overcast
3:15 PM 33.8 °F 25.3 °F 28.4 °F 81% 29.92 in 10.0 mi NE 11.5 mph - 0.00 in   Light Ice Pellets
3:42 PM 33.8 °F 25.3 °F 28.4 °F 81% 29.92 in 1.0 mi NE 11.5 mph 16.1 mph 0.00 in Snow Light Ice Pellets
3:51 PM 33.1 °F 24.9 °F 30.0 °F 89% 29.91 in 1.0 mi NE 10.4 mph - 0.00 in Snow Light Ice Pellets
4:08 PM 33.8 °F 27.0 °F 28.4 °F 81% 29.91 in 2.0 mi NE 8.1 mph 17.3 mph 0.00 in Snow Light Ice Pellets
4:51 PM 32.0 °F 23.0 °F 28.9 °F 88% 29.91 in 2.0 mi NE 11.5 mph - 0.01 in Rain Light Rain
5:11 PM 33.8 °F 27.0 °F 28.4 °F 81% 29.91 in 3.0 mi NE 8.1 mph 20.7 mph 0.00 in Rain Light Rain
5:51 PM 32.0 °F 24.2 °F 28.9 °F 88% 29.92 in 3.0 mi NNE 9.2 mph - 0.02 in Rain Light Rain
6:22 PM 32.0 °F 24.2 °F 28.4 °F 87% 29.92 in 3.0 mi NE 9.2 mph - 0.05 in Rain Light Rain
6:43 PM 32.0 °F 24.2 °F 28.4 °F 87% 29.91 in 3.0 mi NE 9.2 mph - 0.07 in Rain Light Rain
6:51 PM 32.0 °F 23.0 °F 28.9 °F 88% 29.94 in 3.0 mi NE 11.5 mph 20.7 mph 0.08 in Rain Light Rain
7:21 PM 32.0 °F 23.6 °F 28.4 °F 87% 29.92 in 3.0 mi NNE 10.4 mph - 0.02 in Rain Light Freezing Rain
7:51 PM 32.0 °F 23.6 °F 28.0 °F 85% 29.94 in 6.0 mi NE 10.4 mph 17.3 mph 0.03 in Rain Light Freezing Rain
8:51 PM 30.9 °F 22.8 °F 28.0 °F 89% 29.96 in 5.0 mi NE 9.2 mph - 0.04 in Rain Light Freezing Rain
9:51 PM 32.0 °F 24.2 °F 28.0 °F 85% 29.98 in 5.0 mi NE 9.2 mph - 0.06 in Rain Light Freezing Rain
10:51 PM 32.0 °F 23.6 °F 28.0 °F 85% 29.98 in 5.0 mi NE 10.4 mph - 0.03 in Rain Light Freezing Rain
11:51 PM 30.9 °F 24.3 °F 28.0 °F 89% 29.99 in 5.0 mi NNE 6.9 mph - 0.05 in Rain Light Freezing Rain